IV3CGM-1 Weather Reports


time (UTC)temp
F
wind
direction
speed
knots
gust
knots
rain 1hr
in
rain 24hr
in
rain mn
in
humidity
%
barometer
mb
20260507013415 47 309 3.5 3.5 0.00 0.00 0.00 99
20260507012359 47 330 3.5 3.5 0.00 0.00 0.00 99
20260507011425 47 66 0.0 0.0 0.00 0.00 0.00 99
20260507010412 47 58 0.0 0.0 0.00 0.00 0.00 99
20260507005336 47 58 0.0 0.0 0.00 0.00 0.00 99
20260507004339 47 58 0.0 0.0 0.00 0.00 0.00 99
20260507003327 47 58 0.0 3.5 0.00 0.00 0.00 99
20260507002402 47 68 3.5 3.5 0.00 0.00 0.00 99
20260507001312 47 307 0.0 1.7 0.00 0.00 0.00 99
20260507000338 47 307 1.7 1.7 0.00 0.00 0.00 99
20260506235335 47 307 0.0 3.5 0.00 0.00 0.00 99
20260506234313 46 318 3.5 3.5 0.00 0.00 0.00 99
20260506233237 47 264 2.6 2.6 0.00 0.00 0.00 99
20260506232311 47 222 1.7 4.3 0.00 0.00 0.00 99
20260506231352 47 228 4.3 4.3 0.00 0.00 0.00 99
20260506230337 47 193 1.7 2.6 0.00 0.00 0.00 99
20260506225314 47 193 0.0 1.7 0.00 0.00 0.00 99
20260506224300 47 150 1.7 4.3 0.00 0.00 0.00 99
20260506223225 47 156 4.3 6.1 0.00 0.00 0.00 99
20260506222205 48 257 3.5 6.1 0.00 0.00 0.00 99
20260506221152 48 143 2.6 4.3 0.00 0.00 0.00 99
20260506220136 48 150 1.7 6.1 0.00 0.00 0.00 99
20260506215114 48 193 5.2 6.1 0.00 0.00 0.00 99
20260506214101 48 204 4.3 7.8 0.00 0.00 0.00 99
20260506213049 48 150 7.0 7.8 0.00 0.00 0.00 99
20260506212048 48 210 6.1 7.0 0.00 0.00 0.00 99
20260506211000 48 180 6.1 9.6 0.00 0.00 0.00 99
20260506210024 48 210 4.3 9.6 0.00 0.00 0.00 99
20260506205050 48 150 5.2 7.8 0.00 0.00 0.00 99
20260506204037 48 167 6.1 10.4 0.00 0.00 0.00 99
20260506203049 48 217 7.0 10.4 0.00 0.00 0.00 99
20260506202026 48 210 5.2 9.6 0.00 0.00 0.00 99
20260506201040 48 193 7.8 10.4 0.00 0.00 0.00 99
20260506200047 48 186 6.1 11.3 0.00 0.00 0.00 99
20260506195111 47 167 10.4 11.3 0.00 0.00 0.00 99
20260506194138 47 210 9.6 11.3 0.00 0.00 0.00 99
20260506193200 47 180 7.0 11.3 0.00 0.00 0.00 99
20260506192110 47 193 6.1 11.3 0.00 0.00 0.00 99
20260506191114 46 222 7.8 7.8 0.00 0.00 0.00 99
20260506185048 46 198 7.0 12.2 0.00 0.00 0.00 99
20260506184125 47 204 11.3 11.3 0.00 0.00 0.00 99
20260506183200 46 162 7.0 10.4 0.00 0.00 0.00 99
20260506182225 46 204 9.6 10.4 0.00 0.00 0.00 99
20260506181247 47 210 5.2 9.6 0.00 0.00 0.00 99
20260506180311 47 193 7.8 7.8 0.00 0.00 0.00 99
20260506175347 47 162 6.1 7.8 0.00 0.00 0.00 99
20260506174422 47 167 7.8 7.8 0.00 0.00 0.00 99
20260506173423 47 193 7.8 10.4 0.00 0.00 0.00 99
20260506172413 47 162 7.8 10.4 0.00 0.00 0.00 99
20260506171249 47 204 4.3 7.8 0.00 0.00 0.00 99
20260506170326 47 193 4.3 11.3 0.00 0.00 0.00 99
20260506165136 47 186 6.1 11.3 0.00 0.00 0.00 99
20260506164158 48 156 10.4 11.3 0.00 0.00 0.00 99
20260506163212 47 204 4.3 9.6 0.00 0.00 0.00 99
20260506162223 47 167 7.8 9.6 0.00 0.00 0.00 99
20260506161158 47 174 6.1 6.1 0.00 0.00 0.00 99
20260506160225 48 222 3.5 12.2 0.00 0.00 0.00 99
20260506155222 48 162 7.8 13.9 0.00 0.00 0.00 99
20260506154214 48 174 13.0 13.9 0.00 0.00 0.00 99
20260506153147 48 198 9.6 14.8 0.00 0.00 0.00 99
20260506152110 48 156 10.4 14.8 0.00 0.00 0.00 99
20260506151148 49 127 13.0 14.8 0.00 0.00 0.00 99
20260506150112 48 162 4.3 12.2 0.00 0.00 0.00 99
20260506145113 48 180 11.3 12.2 0.00 0.00 0.00 99
20260506144035 48 162 9.6 11.3 0.00 0.00 0.00 99
20260506143000 48 150 5.2 11.3 0.00 0.00 0.00 99
20260506142037 48 156 7.8 11.3 0.00 0.00 0.00 99
20260506140100 47 162 7.0 13.0 0.00 0.00 0.00 99
20260506134901 47 132 5.2 13.0 0.00 0.00 0.00 99
20260506133550 47 228 6.1 13.0 0.00 0.00 0.00 99
20260506131934 47 156 11.3 13.0 0.00 0.00 0.00 99
20260506130925 47 210 7.8 13.0 0.00 0.00 0.00 99
20260506130001 48 132 11.3 13.0 0.00 0.00 0.00 99
20260506124913 47 217 6.1 13.9 0.00 0.00 0.00 99
20260506123949 47 156 9.6 13.0 0.00 0.00 0.00 99
20260506123000 47 143 5.2 13.0 0.00 0.00 0.00 99
20260506122024 47 167 6.1 13.9 0.00 0.00 0.00 99
20260506120949 47 193 4.3 13.9 0.00 0.00 0.00 99
20260506115848 47 198 10.4 13.9 0.00 0.00 0.00 99
20260506114748 47 167 9.6 16.5 0.00 0.00 0.00 99
20260506113800 47 193 11.3 19.1 0.00 0.00 0.00 99
20260506112836 47 193 4.3 19.1 0.00 0.00 0.00 99
20260506111824 47 186 7.8 14.8 0.00 0.00 0.00 99
20260506105758 47 198 14.8 17.4 0.00 0.00 0.00 99
20260506104724 46 217 9.6 13.9 0.00 0.00 0.00 99
20260506103712 47 180 6.1 13.9 0.00 0.00 0.00 99
20260506102711 47 204 7.0 12.2 0.00 0.00 0.00 99
20260506101637 47 204 7.8 7.8 0.00 0.00 0.00 99
20260506100559 48 156 7.0 9.6 0.00 0.00 0.00 99
20260506095559 48 162 3.5 13.9 0.00 0.00 0.00 99
20260506094535 48 167 10.4 18.2 0.00 0.00 0.00 99
20260506093547 48 120 13.0 18.2 0.00 0.00 0.00 99
20260506092510 48 162 7.0 17.4 0.00 0.00 0.00 99
20260506091511 48 108 11.3 12.2 0.00 0.00 0.00 99
20260506090548 48 127 7.0 7.8 0.00 0.00 0.00 99
20260506085534 48 127 5.2 9.6 0.00 0.00 0.00 99
20260506084533 48 156 7.0 7.8 0.00 0.00 0.00 99
20260506083511 48 108 5.2 7.8 0.00 0.00 0.00 99
20260506082533 48 114 5.2 6.1 0.00 0.00 0.00 99
20260506081534 48 127 6.1 7.8 0.00 0.00 0.00 99
20260506080533 48 127 7.8 7.8 0.00 0.00 0.00 99
20260506073508 47 162 4.3 5.2 0.00 0.00 0.00 99
20260506072544 47 6 0.0 4.3 0.00 0.00 0.00 99
20260506071620 46 62 3.5 7.8 0.00 0.00 0.00 99
20260506070621 46 233 4.3 7.0 0.00 0.00 0.00 99
20260506061546 47 108 1.7 2.6 0.00 0.00 0.00 99
20260506060556 47 288 1.7 3.5 0.00 0.00 0.00 99
20260506050707 46 330 0.0 1.7 0.00 0.00 0.00 99
20260506044722 46 315 3.5 5.2 0.00 0.00 0.00 99
20260506043642 46 315 5.2 6.1 0.00 0.00 0.00 99
20260506042644 46 318 5.2 6.1 0.00 0.00 0.00 99
20260506041555 46 48 0.0 1.7 0.00 0.00 0.00 99
20260506040543 46 18 0.0 1.7 0.00 0.00 0.00 99
20260506035555 46 138 0.0 1.7 0.00 0.00 0.00 99
20260506034610 46 138 0.0 0.0 0.00 0.00 0.00 99
20260506033620 46 288 0.0 1.7 0.00 0.00 0.00 99
20260506032644 46 294 1.7 4.3 0.00 0.00 0.00 99
20260506031708 46 300 3.5 4.3 0.00 0.00 0.00 99
20260506030642 46 281 3.5 3.5 0.00 0.00 0.00 99
20260506025641 46 48 1.7 1.7 0.00 0.00 0.00 99
20260506024632 46 63 0.0 4.3 0.00 0.00 0.00 99
20260506023621 46 63 1.7 4.3 0.00 0.00 0.00 99
20260506022645 46 167 0.0 0.0 0.00 0.00 0.00 99
20260506021658 46 186 0.0 0.0 0.00 0.00 0.00 99
20260506020642 46 300 0.0 3.5 0.00 0.00 0.00 99
20260506015621 46 312 3.5 4.3 0.00 0.00 0.00 99
20260506014658 46 264 1.7 2.6 0.00 0.00 0.00 99